Wind_Speed
11 10 6 0 8 12 13 15 17 20 23 28 33 31 29 28 27 23 23 26 29 27 27 38 47 50 48 43 40 41 44 47 48 48 48 48 46 43 43 43 41 40 40 40 40 40 40 42 44 44 44 44 42 40 39 38 36 34 33 32 31 29 28 26 27 27 27 27 26 25 25 25 25 24 23 22 22 23 24 24 23 22 21 21 21 20 19
7 7 4 3 8 11 13 12 13 18 23 27 30 29 29 31 27 19 18 24 26 25 28 37 44 46 47 45 42 43 46 49 48 47 48 45 42 40 39 40 40 39 37 36 37 40 41 43 45 45 44 43 41 39 38 38 36 34 32 32 30 29 28 27 28 29 27 27 26 26 26 26 25 24 23 21 22 23 24 24 23 22 22 22 22 21 20
6 8 7 3 9 10 12 12 12 15 21 25 27 28 30 31 24 16 18 25 26 25 28 36 42 44 46 46 43 43 48 49 48 47 46 42 40 38 36 36 38 37 34 31 34 38 40 42 43 44 43 41 40 39 38 37 36 33 32 31 30 29 29 29 30 29 28 27 27 27 27 27 26 24 22 21 22 24 24 24 23 23 23 23 22 21 20
8 13 12 2 10 9 11 13 13 16 21 24 27 29 29 27 20 13 16 22 24 24 28 36 41 42 42 42 42 43 47 49 47 46 44 41 39 37 34 34 36 37 34 32 33 35 37 39 40 41 42 41 40 39 38 37 34 33 32 31 30 30 30 30 31 30 28 27 27 27 27 27 26 24 22 22 23 24 24 24 24 23 23 23 22 21 21
10 14 15 4 9 10 11 14 14 15 20 24 26 26 24 23 18 11 11 17 21 23 28 37 41 39 39 40 42 44 47 47 45 42 41 41 39 38 37 37 39 39 36 32 30 31 32 34 35 37 38 38 38 37 37 36 34 33 32 31 31 32 31 32 32 31 29 28 28 28 28 28 26 23 22 23 24 24 24 24 24 23 23 23 22 22 22
11 12 14 8 4 6 9 10 9 11 17 20 21 21 21 20 15 8 9 14 18 21 27 36 41 40 39 41 44 46 47 44 42 42 42 42 41 40 41 42 42 41 36 31 29 29 30 30 31 34 36 35 36 37 37 37 35 34 33 33 33 33 33 33 33 31 30 29 29 29 30 29 26 24 23 24 24 25 25 24 24 23 23 23 22 22 23
11 9 10 6 2 2 3 5 6 10 14 16 18 19 20 18 10 6 10 14 17 20 25 33 40 41 42 44 47 47 46 43 42 43 43 43 43 43 44 44 44 44 40 34 31 31 30 30 32 34 36 35 36 38 39 38 36 36 35 34 34 34 35 34 33 32 30 30 30 31 30 28 25 24 24 25 25 25 25 25 24 23 23 23 23 23 24
11 7 6 5 1 2 3 5 7 10 13 15 19 21 19 16 11 10 13 13 14 18 23 31 40 44 44 45 48 47 45 42 43 44 44 44 44 43 44 42 42 43 42 37 34 34 33 34 35 35 36 36 37 38 38 37 36 36 36 36 36 36 36 35 34 32 31 31 31 32 31 28 26 25 25 25 25 26 26 25 24 23 23 23 23 24 24
14 8 5 5 4 1 3 5 7 10 11 13 18 20 17 14 12 11 13 11 10 12 18 28 38 43 43 43 45 46 44 43 43 45 45 45 45 45 46 42 38 38 40 39 37 38 37 37 36 37 37 37 37 37 37 37 37 37 38 37 37 38 37 36 35 33 32 32 32 32 31 28 26 25 25 24 25 25 25 24 23 22 22 22 23 24 26
18 12 6 3 4 4 2 2 7 10 11 12 15 18 16 13 10 11 14 12 11 11 16 26 35 39 41 43 44 44 44 43 43 45 44 42 41 42 43 43 40 38 39 39 39 39 39 39 38 38 38 38 38 37 36 36 37 38 38 37 38 39 38 37 35 34 33 33 33 33 31 28 26 25 25 24 24 24 23 23 22 22 21 22 23 25 27
19 16 9 3 4 5 3 2 6 9 10 11 12 15 17 16 13 13 15 12 9 9 13 23 35 40 41 44 45 44 43 42 42 42 41 37 36 37 37 39 39 37 36 36 37 38 39 40 40 38 38 38 38 38 37 37 38 39 37 36 38 39 39 38 36 34 34 34 34 33 30 28 27 25 24 23 23 24 24 23 23 23 23 23 24 26 28
16 15 9 4 3 3 4 4 5 7 7 8 10 13 18 19 17 15 14 11 8 5 5 12 26 37 41 45 47 46 44 43 41 40 38 36 36 37 39 39 38 37 37 39 40 40 39 38 38 38 38 38 38 37 37 38 39 39 37 37 39 41 40 39 37 35 35 36 35 33 31 29 28 26 25 25 24 25 25 26 27 26 24 23 24 26 29
14 12 7 3 3 4 5 6 6 7 8 8 10 13 17 20 21 20 19 17 14 8 3 3 11 23 32 39 45 49 48 45 43 41 40 39 38 38 41 43 40 39 39 41 42 41 39 37 38 39 39 39 39 38 39 40 40 40 39 40 42 42 41 39 37 36 36 36 35 33 32 31 28 26 25 25 24 24 25 27 28 27 25 25 26 28 29
13 13 8 3 4 8 6 5 7 10 11 12 13 13 14 17 20 21 20 19 16 12 8 4 3 11 20 26 35 45 50 50 49 46 43 43 40 37 39 43 43 41 40 39 38 38 38 38 39 40 40 41 41 41 42 43 42 41 42 42 42 42 41 39 37 37 37 37 35 33 32 30 28 27 27 25 23 23 24 25 26 27 27 28 29 30 30
13 13 8 4 8 12 7 4 6 8 10 12 13 13 13 14 16 16 15 14 13 11 9 5 2 5 15 21 27 38 47 49 48 46 45 45 44 38 35 39 41 41 40 40 38 38 38 39 40 42 42 43 43 43 44 44 44 43 43 43 42 42 41 39 38 38 38 37 35 32 30 30 30 29 27 25 23 22 23 25 26 27 28 29 30 30 30
15 13 11 10 12 13 9 4 5 9 10 11 13 13 13 14 16 16 14 13 12 10 9 7 5 3 11 19 25 34 44 47 43 39 40 43 44 41 37 38 41 42 41 41 41 40 41 42 43 44 45 45 45 44 44 44 44 44 44 43 43 43 42 40 40 40 39 37 34 31 31 33 34 30 24 22 23 24 26 28 28 27 27 28 29 29 29
15 15 12 12 12 11 9 8 6 7 10 11 12 11 12 14 17 16 15 14 13 11 9 8 7 6 6 12 19 27 36 41 36 32 33 34 36 38 36 35 40 44 44 44 45 45 45 45 45 45 45 45 44 44 44 45 45 45 45 45 44 44 42 41 41 40 38 35 31 30 34 35 32 27 23 23 24 24 27 28 27 26 26 27 28 28 28
12 15 14 12 11 10 9 8 8 6 5 8 9 9 9 11 13 15 15 16 15 12 10 10 10 9 7 8 10 14 21 25 25 25 26 27 30 32 32 32 37 42 44 45 47 47 45 44 44 45 44 43 43 43 45 47 47 47 47 46 44 44 42 42 41 39 35 32 29 31 35 34 28 24 24 24 23 23 24 25 27 27 27 27 27 28 28
8 11 13 12 11 12 11 7 4 5 3 3 6 8 9 10 12 13 15 15 15 15 13 12 13 13 12 11 10 9 11 15 18 20 23 25 27 29 31 32 36 39 42 44 45 45 43 41 43 47 46 44 44 45 46 47 49 49 48 46 44 43 43 42 40 36 33 31 30 31 33 33 29 26 25 23 23 22 23 24 26 28 28 27 27 28 29
9 7 9 10 10 11 12 8 5 5 3 3 5 4 6 9 11 14 15 14 15 17 16 14 14 15 15 15 14 13 12 13 16 18 20 23 25 27 29 32 34 36 39 40 41 43 43 41 41 46 47 44 42 41 42 44 45 46 46 47 45 43 42 41 38 35 33 32 32 32 33 32 30 26 24 22 22 22 23 24 25 26 27 28 28 29 31
12 9 8 9 9 10 11 10 7 6 5 7 7 5 3 5 8 10 12 13 14 15 14 13 13 14 15 16 17 17 17 17 17 18 19 19 21 23 25 28 29 31 33 35 37 38 40 42 42 43 44 43 42 42 42 42 42 41 42 44 44 43 42 39 35 35 36 34 32 32 31 30 27 25 23 22 22 22 23 24 25 27 28 28 30 32 33
14 12 10 9 10 10 11 11 9 7 6 7 8 8 7 8 9 8 10 11 13 13 11 11 14 14 13 15 17 19 20 21 21 20 21 21 22 23 24 25 25 26 28 32 33 32 33 37 41 42 42 42 43 45 45 44 43 41 40 43 44 42 40 36 33 33 33 32 30 28 27 26 25 23 22 22 22 23 24 25 27 28 29 30 32 34 36
15 14 12 10 10 10 9 9 9 8 7 6 7 9 10 11 10 8 8 10 12 12 8 8 11 14 14 15 16 18 19 21 22 23 24 24 24 24 24 24 24 25 26 30 32 32 32 33 37 40 42 41 41 42 43 45 44 41 41 45 45 40 36 33 31 31 29 28 27 27 25 24 23 23 22 23 24 25 26 28 29 30 31 33 35 36 38
17 16 14 12 11 10 9 8 9 8 7 6 6 8 10 9 7 6 8 8 9 10 7 6 8 12 15 16 16 17 18 20 22 24 24 24 25 26 26 25 26 26 27 29 31 33 33 32 33 37 39 40 40 40 40 42 43 42 43 45 43 37 33 31 29 28 28 27 27 26 25 24 23 23 23 25 26 27 29 30 31 32 33 34 36 37 38
20 18 14 14 14 12 9 8 8 8 8 8 7 8 8 7 5 4 7 8 8 8 8 9 12 14 14 14 14 15 17 20 22 23 24 24 25 26 26 26 28 29 30 31 31 32 32 31 31 34 38 39 39 38 38 39 41 41 43 44 41 34 31 29 28 28 28 27 26 26 24 24 24 24 26 27 28 29 30 31 32 33 34 35 36 37 38
21 19 16 16 16 14 11 9 9 9 9 8 7 7 8 7 5 4 6 7 8 8 6 8 11 14 14 12 11 12 15 18 19 20 21 23 24 25 25 26 28 30 31 32 31 31 31 31 30 32 36 38 37 37 37 39 39 39 41 43 39 33 30 30 29 29 28 27 26 25 25 25 26 27 27 28 29 30 31 32 33 34 34 35 36 36 37
22 21 19 18 18 17 14 10 9 11 11 9 6 6 7 7 6 4 4 5 7 7 5 5 9 13 12 8 7 9 12 15 16 15 15 18 21 22 23 24 27 29 30 31 30 29 29 30 30 31 34 37 37 37 37 38 38 38 40 38 34 31 30 30 29 28 27 27 26 26 26 27 27 28 28 28 29 30 31 33 34 34 34 34 35 36 36
22 22 22 21 20 19 18 13 10 11 13 11 7 5 6 7 7 6 5 6 7 6 4 3 6 10 10 6 5 6 7 11 13 12 13 15 16 17 19 21 23 25 26 28 28 29 29 29 27 26 30 35 36 36 36 38 39 39 37 33 29 28 29 29 28 28 27 27 27 27 27 28 28 28 28 29 30 31 33 34 35 35 33 33 33 33 32
23 23 24 23 22 22 20 17 13 11 13 13 11 8 7 8 8 7 8 8 8 8 8 6 6 9 9 8 7 6 5 7 10 11 13 13 12 12 15 17 18 19 21 21 21 23 25 26 24 24 27 33 35 34 36 38 38 34 32 30 29 29 30 29 29 29 29 28 28 28 28 28 29 30 30 30 32 33 34 36 36 35 33 31 31 31 31
24 24 24 25 25 24 23 20 16 13 13 14 14 11 8 7 8 8 8 9 11 12 12 11 9 9 10 9 7 7 7 6 8 10 12 12 11 10 12 14 15 17 19 18 17 17 20 22 24 26 28 32 35 35 35 34 30 26 25 27 29 29 29 29 28 29 29 29 29 30 30 31 32 32 32 33 34 35 36 36 36 35 34 34 34 35 35
25 25 25 25 26 27 26 24 20 17 15 15 15 14 11 9 9 9 8 9 10 12 13 11 9 9 10 10 9 8 8 8 9 9 10 10 10 10 11 12 14 16 17 16 16 17 19 21 25 28 29 30 33 34 32 28 24 22 24 27 28 28 29 29 29 30 31 32 33 33 33 33 33 34 34 35 36 36 36 36 35 35 35 36 36 36 35
26 26 26 27 28 28 28 26 23 20 19 17 16 16 14 12 11 11 10 9 9 11 12 12 12 11 11 12 11 10 9 8 9 9 10 10 10 9 8 10 12 13 14 15 15 16 17 18 22 26 27 27 26 25 24 23 23 24 27 29 29 30 31 32 32 33 34 34 34 33 33 33 34 35 36 36 35 35 34 33 33 34 34 35 35 35 35
26 26 27 28 28 28 29 27 25 23 22 21 19 17 16 14 13 12 12 10 9 9 11 13 14 14 13 12 10 10 10 9 9 10 11 12 13 12 11 11 11 11 11 13 14 16 18 20 22 23 23 21 19 18 19 20 22 24 27 29 30 31 32 32 32 33 33 32 32 32 33 34 34 34 34 33 33 33 33 33 33 33 34 34 34 34 34
26 27 28 29 29 28 29 28 26 25 25 24 22 19 18 16 15 14 13 11 10 9 10 11 13 14 15 13 12 11 11 11 11 11 12 13 15 16 15 14 12 10 9 10 11 11 13 16 19 20 20 18 18 19 20 22 24 25 27 28 29 29 29 30 30 30 30 30 31 31 31 31 31 32 32 32 33 33 34 34 34 34 33 33 33 33 33
25 26 28 30 29 29 29 29 27 26 26 26 25 23 20 18 17 16 14 12 11 11 11 10 11 13 14 14 14 13 12 12 13 13 13 13 14 17 18 17 15 12 10 9 8 9 10 13 15 15 16 16 18 20 22 24 26 27 27 28 28 29 29 29 30 29 29 28 28 28 29 30 31 31 32 33 33 34 34 34 33 33 32 32 32 32 32
25 24 26 29 30 30 31 30 29 28 27 27 27 26 23 21 19 18 16 14 13 13 13 12 11 12 12 12 12 12 13 13 13 13 13 14 14 15 17 17 17 15 13 12 11 11 13 15 16 16 17 18 19 21 23 25 27 28 28 28 28 28 28 28 28 28 27 27 27 28 30 31 32 32 33 33 33 33 33 32 32 32 32 32 32 32 32
27 25 25 27 29 31 32 32 31 29 28 27 27 27 26 24 22 21 19 17 16 15 14 13 12 11 11 11 11 12 12 13 12 12 12 13 14 15 16 16 16 15 15 15 16 15 15 16 17 17 18 19 20 21 23 24 25 26 26 26 26 26 26 26 27 26 26 27 29 30 31 31 31 31 31 31 31 31 31 31 31 31 31 31 31 31 32
29 27 26 27 28 30 33 34 32 30 28 27 27 27 27 26 25 24 23 20 18 17 16 15 14 13 12 12 13 14 13 13 12 12 11 11 12 13 14 15 15 15 15 16 17 17 17 17 17 17 17 19 19 20 21 21 22 22 23 23 23 23 24 25 26 27 28 29 30 31 30 30 29 29 29 29 29 29 29 29 29 30 30 31 31 31 31
30 28 27 26 26 29 32 34 33 31 29 28 27 27 27 27 26 26 26 24 22 20 19 19 18 17 16 15 16 16 16 15 14 13 11 11 11 12 12 14 15 15 15 15 16 16 16 16 16 17 17 18 18 18 18 19 20 21 22 22 22 23 23 25 26 27 28 29 29 29 29 28 28 28 27 26 26 26 26 28 29 29 30 30 30 30 31
31 29 28 27 26 27 31 33 34 32 30 28 27 28 27 26 25 25 26 26 25 24 23 21 20 19 18 18 19 18 18 18 17 16 15 13 12 11 12 13 13 14 15 15 16 15 15 16 17 17 18 18 18 18 18 18 18 18 19 20 21 21 23 23 24 25 25 25 26 26 26 26 26 25 24 24 24 26 27 28 29 29 29 29 29 30 30
31 29 28 27 26 26 29 32 34 32 30 29 28 28 27 25 23 24 25 26 26 25 25 23 22 20 19 19 20 20 20 19 19 19 18 17 15 14 14 14 14 14 14 14 14 15 16 17 17 17 17 18 18 18 18 19 20 20 21 21 22 22 23 23 23 23 24 24 25 25 25 25 25 24 24 25 26 27 27 27 27 28 28 28 29 29 30
29 28 27 27 25 25 27 31 33 33 31 30 28 26 24 23 21 22 23 24 25 26 26 26 25 24 22 21 22 22 22 22 22 22 21 20 19 17 16 16 16 16 15 15 15 15 16 17 18 18 18 18 18 17 17 18 19 20 20 20 20 20 21 21 22 23 23 24 24 24 25 25 25 24 24 25 26 26 26 26 26 27 27 28 29 29 30
25 26 26 26 24 23 25 29 33 33 32 31 29 26 23 20 19 21 22 23 24 25 26 27 27 26 25 25 25 24 24 25 25 25 24 24 22 21 20 19 18 18 18 18 18 17 17 18 19 20 20 21 21 21 20 20 20 19 18 18 19 20 21 22 23 24 24 24 23 24 24 24 24 24 24 25 25 25 25 25 26 27 28 29 29 30 31
20 23 24 24 23 22 24 28 31 32 32 31 30 28 25 21 21 22 22 21 21 23 24 26 27 27 27 26 26 26 26 26 27 27 27 27 26 25 24 23 21 20 19 19 19 19 19 20 20 21 21 22 22 22 23 23 23 23 23 23 24 24 24 25 25 25 24 23 23 23 24 24 24 24 24 25 25 25 25 26 27 28 29 29 30 30 30
16 18 20 21 21 21 22 24 27 29 30 31 32 31 28 25 25 26 25 23 22 22 23 25 26 27 27 27 28 28 28 28 27 27 27 28 28 28 27 26 25 23 22 21 22 22 22 21 21 21 22 23 23 23 23 23 24 24 25 26 26 26 25 25 25 24 24 23 23 24 24 24 24 24 25 25 26 26 27 28 29 29 30 30 30 29 29
14 14 16 18 19 19 20 22 25 27 29 31 32 33 30 27 26 26 26 24 23 24 24 25 26 26 27 27 27 28 28 29 29 29 28 28 28 28 29 28 27 26 26 25 25 25 24 23 23 23 23 24 24 24 24 24 25 25 26 27 27 26 25 25 25 25 24 24 24 23 24 24 25 25 26 27 28 28 29 29 29 29 29 29 28 27 26
12 13 15 17 18 19 21 22 24 26 27 28 30 32 31 28 27 26 26 24 23 24 25 26 27 27 26 26 26 26 26 27 28 29 29 29 28 28 28 28 28 28 28 28 28 27 26 25 25 24 24 24 25 25 26 26 26 26 26 26 26 26 25 25 25 25 24 24 24 24 25 26 27 28 29 29 29 29 29 29 29 28 28 27 26 25 24
14 16 17 17 17 19 20 21 21 22 23 25 28 31 30 29 29 28 27 25 23 23 24 25 26 27 26 26 25 25 24 24 25 26 27 28 28 28 28 27 27 27 28 28 28 28 27 27 26 25 25 25 26 26 26 26 26 26 26 25 25 25 25 24 24 25 25 25 26 27 28 29 29 29 29 29 29 29 29 28 28 27 26 26 24 23 23
14 16 17 17 17 18 19 19 19 20 21 23 26 28 27 27 27 26 26 25 23 23 23 24 25 26 26 25 25 24 24 24 24 24 25 25 26 26 26 27 27 27 28 28 29 29 28 28 27 27 27 26 26 27 26 26 26 26 25 25 25 25 25 25 26 26 27 28 28 29 29 29 29 29 28 27 27 27 27 26 26 25 24 23 23 22 22
12 13 15 16 17 18 18 19 19 19 21 23 25 25 24 23 22 22 22 23 23 22 22 22 23 24 24 24 24 24 24 25 24 24 24 25 25 25 25 26 26 27 28 28 28 28 28 28 28 28 28 27 27 27 26 26 26 25 25 25 26 26 27 27 28 28 29 29 30 30 29 28 28 27 26 26 25 25 25 24 23 23 22 22 22 23 23
7 7 11 14 17 18 19 19 19 19 20 22 23 23 22 22 21 20 20 21 21 21 21 21 22 23 24 24 24 24 24 25 25 25 25 25 25 26 26 26 26 26 26 26 26 26 26 27 27 27 27 27 27 27 26 26 27 27 27 27 28 28 28 29 29 29 30 30 29 29 28 27 27 26 25 25 24 24 23 23 23 23 23 24 24 25 25
7 7 9 11 14 16 17 18 18 18 18 18 18 18 18 19 20 19 19 20 21 21 22 22 23 23 24 24 24 24 25 25 26 26 25 25 25 26 26 26 26 25 25 25 25 25 25 26 26 26 26 26 26 27 27 27 27 28 28 28 28 28 28 28 28 28 28 28 27 27 26 26 25 25 25 24 24 24 24 24 24 24 25 25 26 27 27
Wind_Direction
33 32 21 135 181 184 192 200 207 210 210 210 212 211 207 208 217 219 214 220 221 211 212 219 209 191 183 185 188 191 194 196 197 198 201 203 199 195 195 196 193 193 196 200 202 204 204 204 206 208 208 211 212 213 215 217 220 221 223 224 223 221 221 222 223 224 225 228 231 236 240 244 247 250 252 253 254 254 253 253 255 258 263 269 272 273 273
46 42 12 240 199 193 194 199 208 212 211 211 213 212 214 219 224 219 212 217 219 215 213 215 210 197 187 186 189 194 197 198 198 199 201 199 193 190 191 191 190 191 193 197 202 203 204 205 208 210 210 212 213 213 214 217 219 220 221 221 219 217 219 221 223 224 226 228 231 235 239 243 246 248 251 253 253 252 252 253 256 259 263 267 270 271 270
37 15 358 231 198 194 194 198 206 211 213 214 214 214 219 222 220 215 219 220 218 218 212 209 211 207 195 188 190 195 200 201 202 204 204 198 190 189 190 190 191 191 191 195 201 203 204 206 209 212 213 214 214 213 214 217 219 220 221 219 215 214 217 220 222 225 226 228 231 235 239 242 245 247 249 251 251 251 252 253 255 258 262 266 268 268 267
8 3 5 118 180 186 191 200 208 214 217 218 218 220 220 217 214 218 229 225 218 215 209 205 209 211 203 195 191 194 200 204 205 206 206 201 193 189 190 191 191 189 190 195 200 202 202 205 208 212 214 214 214 213 214 216 218 219 220 217 213 213 216 219 222 225 226 228 231 235 239 242 243 245 247 249 250 250 251 252 254 257 261 265 268 267 265
351 360 7 54 167 185 195 204 215 220 222 224 224 222 215 214 221 231 232 226 220 216 211 208 211 214 210 200 191 192 199 204 205 205 205 204 200 194 193 193 190 187 189 194 199 201 201 204 208 212 214 216 215 214 214 216 216 218 219 215 211 212 216 220 223 225 226 228 231 235 238 240 241 244 246 248 248 249 250 252 253 256 260 263 266 265 264
351 360 5 28 139 186 201 213 229 229 226 227 224 216 215 223 235 234 216 215 215 216 215 213 214 215 211 200 192 194 198 201 204 204 202 204 204 200 197 195 190 185 186 192 198 201 202 204 208 212 214 215 215 214 214 214 214 215 215 213 211 213 216 219 222 224 225 227 231 234 237 239 241 244 246 247 248 249 250 251 252 255 257 261 264 266 266
1 6 12 30 112 188 201 219 237 226 220 220 218 218 223 226 220 198 203 209 210 213 217 216 215 215 211 201 194 194 196 197 201 203 203 205 205 202 201 198 191 184 184 188 196 200 202 204 208 210 211 213 214 213 212 213 213 214 213 212 211 213 216 219 221 223 224 226 230 234 238 240 242 245 247 248 249 250 250 251 252 254 256 259 263 266 269
7 6 12 24 33 221 201 206 219 214 211 216 219 221 223 219 213 209 206 204 209 215 218 219 217 215 210 201 195 195 197 197 200 202 205 208 208 206 205 200 191 185 184 186 194 201 205 207 210 211 212 214 215 214 213 213 212 212 212 211 211 212 215 218 221 223 224 227 231 235 238 241 243 246 248 249 249 250 251 251 252 253 255 259 263 267 271
16 10 1 23 38 17 209 210 213 208 208 220 224 225 229 235 235 218 201 210 235 230 223 225 221 215 211 204 198 197 200 201 201 202 205 207 208 208 206 199 191 188 187 188 195 203 207 209 212 214 214 215 216 214 213 213 212 212 213 211 211 213 215 218 221 223 224 227 231 235 238 241 244 247 248 248 248 249 250 251 252 252 254 258 263 268 272
18 15 3 38 58 38 11 247 230 219 219 229 231 229 235 246 236 201 197 221 245 233 225 229 226 220 217 212 206 202 203 204 204 204 205 207 207 206 204 200 197 195 194 195 200 204 205 208 212 214 216 217 217 215 213 212 212 214 214 213 213 215 217 220 222 223 225 228 231 234 238 241 244 245 246 246 246 248 249 249 249 250 253 258 263 268 271
14 19 19 39 50 28 11 297 252 236 229 229 227 224 227 232 225 207 206 218 221 204 213 226 226 223 220 217 213 209 206 207 210 210 211 213 212 211 207 203 202 202 201 202 203 204 205 206 210 213 216 218 218 216 213 213 214 214 214 214 215 218 220 221 223 223 225 228 231 234 237 241 242 242 242 241 243 245 247 246 247 248 251 256 262 266 268
13 22 22 25 18 350 321 296 269 255 244 232 232 235 232 229 225 219 223 237 239 216 199 217 221 222 222 222 221 217 213 213 216 216 217 218 217 216 212 207 205 206 204 201 200 200 203 207 211 213 215 216 217 215 214 215 214 214 213 213 215 219 221 222 222 222 224 228 231 233 236 239 239 238 238 240 243 247 249 249 250 251 254 259 264 266 266
15 28 39 54 26 344 308 295 281 267 255 247 251 256 250 241 237 238 245 252 257 260 260 198 206 214 219 222 223 222 220 220 219 218 221 223 221 217 213 209 206 207 207 204 200 200 203 208 212 213 213 214 215 214 214 215 215 213 213 213 215 219 220 221 221 220 223 228 230 232 235 237 237 237 240 243 247 251 253 253 252 252 256 263 267 268 268
12 27 44 74 27 3 330 284 284 277 260 252 257 259 254 247 246 249 252 253 259 266 260 241 207 206 212 219 223 222 222 223 223 223 225 225 220 214 210 207 205 205 207 207 205 204 206 210 212 213 215 216 216 214 214 215 215 214 214 214 216 219 220 220 219 219 223 227 229 232 236 237 237 238 239 242 247 252 255 257 255 255 259 265 268 270 272
9 21 31 37 14 5 348 268 264 274 263 258 258 255 252 252 252 253 253 250 258 268 261 257 282 209 205 214 222 221 219 221 223 224 224 222 219 214 209 206 204 204 204 204 203 203 206 209 212 215 217 217 218 218 217 216 216 215 215 215 216 218 219 219 218 218 223 227 229 232 236 240 240 237 237 241 247 252 255 256 257 258 261 266 269 272 274
2 9 15 14 5 359 356 332 267 260 260 263 263 257 255 257 257 259 261 258 259 266 263 260 278 242 202 204 213 217 215 216 217 216 212 212 215 215 212 207 204 203 203 202 202 202 205 209 212 215 216 217 218 220 220 218 216 215 215 215 216 217 218 217 217 218 222 226 229 233 238 242 240 236 236 244 250 254 258 257 256 260 265 268 271 272 273
354 354 357 1 357 354 1 10 348 285 264 264 266 265 264 264 262 262 266 267 265 264 262 255 257 266 228 204 204 205 203 204 205 201 194 195 202 208 208 203 200 200 202 203 203 204 207 211 214 216 216 218 219 220 220 219 216 214 214 214 215 216 216 216 216 219 222 227 233 237 238 237 235 233 239 248 254 261 264 259 256 264 271 272 272 273 274
343 343 340 342 348 348 343 352 3 349 297 270 271 272 271 274 273 266 262 266 266 263 259 249 241 245 250 235 216 193 180 180 184 184 183 187 195 202 205 201 198 199 201 204 206 207 209 214 217 218 217 218 219 220 220 218 214 212 212 213 213 213 214 216 217 220 224 228 234 239 237 234 234 239 247 254 260 267 266 259 258 267 272 272 273 275 276
319 335 331 326 333 341 336 322 326 350 343 259 261 272 276 284 287 276 268 266 263 258 254 245 236 235 241 248 244 215 179 170 175 183 189 193 197 203 208 209 207 206 206 208 210 213 215 218 219 218 216 217 218 219 219 217 213 211 210 210 210 211 213 215 218 221 225 228 233 239 236 232 237 248 256 261 264 265 263 261 263 268 271 273 276 277 278
293 311 325 325 324 330 335 322 285 285 287 234 230 256 279 280 276 271 269 265 260 258 259 257 252 246 244 246 244 231 213 195 188 192 199 202 206 210 213 216 217 216 214 214 215 218 222 226 226 222 219 220 222 222 222 221 219 216 210 205 205 208 212 215 218 221 224 228 234 238 236 235 243 254 261 264 264 263 263 265 266 269 272 275 278 279 280
286 290 309 330 328 318 325 328 303 273 269 259 240 220 241 276 268 261 260 259 256 256 261 272 277 269 257 251 243 232 226 220 210 204 204 210 216 220 222 225 226 225 222 220 220 222 226 231 234 231 225 222 223 224 223 222 223 223 214 204 201 207 212 214 218 222 225 229 234 237 239 244 252 259 262 262 262 263 265 267 269 272 276 278 280 281 281
276 281 289 316 327 314 314 323 314 284 273 269 246 227 244 281 288 271 258 255 252 250 259 280 287 280 268 257 245 233 230 229 225 217 212 214 220 223 225 227 229 230 228 224 225 232 237 238 239 237 230 224 223 224 224 221 220 222 216 205 203 208 213 215 219 224 227 232 237 242 246 251 256 258 259 259 260 262 265 268 272 275 278 279 280 280 281
268 273 275 290 312 312 306 313 316 307 293 280 254 237 248 275 287 269 250 248 245 243 253 283 284 275 269 261 248 237 234 233 232 229 226 224 225 228 228 228 229 233 235 234 238 247 251 248 244 239 231 226 225 225 225 222 220 218 213 207 206 209 212 217 223 227 230 236 241 246 250 252 253 254 255 257 260 264 267 270 273 276 278 279 279 280 281
256 262 267 275 290 304 309 307 312 314 299 280 266 248 249 271 285 256 235 237 235 234 246 285 297 288 278 265 250 241 240 240 240 240 238 236 236 238 239 238 238 240 243 246 251 255 257 256 252 243 234 228 226 226 226 223 220 218 214 209 206 207 212 218 225 230 234 239 244 247 250 251 252 253 255 258 262 265 268 271 273 275 277 278 279 280 281
250 253 261 266 272 287 304 303 301 305 297 282 269 247 240 261 277 227 214 224 231 239 264 292 301 294 280 267 256 248 246 246 247 248 248 247 247 249 249 248 249 249 250 252 255 258 261 263 259 247 238 232 229 228 227 223 220 220 217 211 205 205 211 218 224 229 235 240 243 246 248 249 250 252 255 258 262 266 269 272 273 275 276 278 279 280 281
252 252 255 261 265 272 286 293 294 296 295 287 271 247 242 257 261 211 198 219 233 243 273 303 298 282 268 260 260 254 247 245 246 247 249 249 249 250 252 252 252 253 253 253 255 258 263 267 264 252 240 232 228 228 226 222 218 215 210 205 202 202 208 215 222 228 233 237 240 242 244 247 250 253 256 260 264 267 270 273 274 276 278 279 280 280 281
254 251 249 252 257 262 267 275 285 286 285 285 278 258 252 259 256 225 202 211 220 227 250 300 298 284 271 259 256 252 242 239 239 242 249 251 249 248 250 251 251 253 255 257 259 260 263 267 264 252 236 227 224 223 220 213 205 198 195 195 197 200 207 215 221 226 230 234 237 240 243 246 250 253 256 260 264 267 271 274 276 278 280 281 280 281 283
256 254 249 247 250 254 257 258 265 274 278 279 278 273 271 272 268 249 221 194 180 188 217 275 291 289 289 286 273 258 239 231 233 238 247 251 250 249 251 252 252 255 260 262 262 261 262 261 257 244 228 217 213 212 207 200 195 193 193 195 198 202 209 215 221 224 229 232 235 239 242 246 250 253 257 261 265 268 272 275 278 281 283 282 281 282 281
253 253 252 248 245 247 249 249 248 258 269 272 270 271 274 275 272 257 235 221 216 225 241 254 264 273 283 292 293 286 263 238 237 242 244 246 248 251 253 255 255 255 256 258 259 256 252 248 241 230 215 206 201 197 191 188 189 194 198 200 202 206 211 216 220 225 229 233 235 238 241 245 249 253 256 260 265 269 273 276 279 282 282 281 280 281 279
247 247 249 250 247 244 244 244 242 244 256 264 266 266 264 265 267 261 248 244 248 254 257 259 258 257 258 263 279 293 289 266 254 254 254 253 255 260 264 263 257 249 245 248 253 249 240 232 226 219 208 200 196 192 189 189 195 204 208 208 209 212 217 221 225 228 231 233 235 237 240 244 248 253 256 260 265 269 273 277 278 278 278 279 281 283 283
246 243 244 246 247 245 243 241 239 239 244 251 258 261 259 256 258 258 253 250 251 255 258 257 252 246 244 245 254 275 285 278 268 264 258 251 253 264 272 269 257 245 239 238 240 238 231 224 218 214 206 197 192 193 197 204 213 219 216 213 214 218 222 225 227 228 229 232 235 238 242 246 251 255 260 264 269 272 274 276 276 276 277 280 283 285 287
245 243 241 241 243 244 243 240 237 237 238 241 246 252 254 253 254 255 254 248 246 251 253 249 241 241 243 242 240 244 254 261 262 256 243 229 224 231 241 241 236 230 223 217 216 217 213 208 204 204 202 199 199 202 208 214 217 216 214 214 218 221 224 226 227 229 232 235 238 242 247 251 256 261 265 269 272 274 274 274 275 277 279 282 284 286 286
245 242 241 241 241 242 243 241 237 235 235 235 237 242 246 250 252 253 251 246 242 245 250 247 242 240 239 237 233 231 233 238 244 245 238 226 215 209 203 197 192 188 183 180 184 191 195 196 197 199 201 205 211 217 221 223 223 222 222 223 225 226 228 230 232 235 238 242 246 251 256 260 264 268 271 272 273 274 275 276 278 279 281 282 283 284 283
250 244 241 242 241 240 240 239 236 234 233 233 234 236 239 243 248 251 250 247 242 239 241 244 243 239 235 234 233 229 227 229 232 236 238 234 227 221 215 205 194 185 176 168 167 174 183 189 195 200 204 212 221 227 230 232 232 231 230 230 231 233 235 238 240 243 248 253 257 261 264 267 269 271 273 273 274 276 277 278 279 280 280 281 281 281 281
256 248 243 240 240 240 239 238 235 233 232 232 232 232 234 237 242 247 249 250 248 243 239 240 242 241 239 239 237 231 226 227 230 232 234 235 234 234 233 229 223 219 216 207 199 193 187 185 190 199 209 219 227 231 232 233 232 231 232 234 237 239 242 245 249 253 257 260 262 265 268 270 272 273 273 274 276 277 277 278 278 278 278 278 278 279 280
258 251 243 239 237 237 238 237 234 231 230 230 231 231 233 234 237 241 244 247 248 248 245 241 236 235 237 241 242 238 234 234 235 235 234 233 232 233 237 238 236 233 230 226 224 218 207 201 204 211 219 225 229 232 233 233 232 232 234 237 241 244 248 252 255 258 259 261 264 269 271 273 273 273 274 274 275 276 276 276 276 276 276 276 278 280 281
259 253 245 239 235 234 234 235 234 231 229 228 229 230 231 233 234 236 238 240 242 246 246 238 229 227 234 241 244 243 240 237 236 237 237 236 233 231 232 234 233 230 224 220 221 222 220 216 215 219 224 228 231 233 235 237 238 239 241 244 246 249 252 255 256 257 259 263 268 272 273 273 273 272 273 273 274 274 274 274 274 274 275 276 278 279 281
260 255 248 241 236 233 232 232 232 230 228 227 226 227 229 232 233 234 236 239 242 243 242 237 232 233 239 244 244 242 240 237 234 232 234 236 236 233 229 228 227 226 223 219 218 221 224 225 226 227 230 232 235 238 241 243 245 247 248 249 250 251 252 254 256 259 262 267 270 271 271 270 270 271 272 272 272 272 272 272 272 273 274 275 277 279 280
259 255 250 244 239 235 232 230 229 229 227 226 224 224 226 230 232 233 234 237 240 240 240 241 242 242 242 244 244 242 240 237 234 231 233 238 239 234 229 226 225 224 225 226 226 227 228 230 230 229 230 232 236 240 243 245 248 250 251 251 252 253 254 256 259 262 265 267 267 267 267 268 269 270 271 271 270 271 271 272 273 274 276 277 279 280 281
258 254 249 245 241 237 232 229 227 227 226 225 224 223 224 229 233 233 233 234 237 240 241 241 242 241 240 241 242 242 240 239 238 237 237 240 240 233 229 228 226 224 224 227 229 228 227 228 229 230 233 236 239 241 245 248 250 250 249 249 251 255 257 258 260 261 262 263 264 265 267 269 270 270 270 270 271 271 273 274 275 277 278 279 280 281 281
257 252 246 242 241 239 233 228 225 223 223 223 223 222 225 230 235 237 236 235 236 239 240 240 238 238 237 239 241 241 240 240 241 242 242 242 240 236 232 231 230 228 228 229 228 227 228 230 232 236 239 240 240 242 246 248 247 246 247 251 255 258 258 258 259 259 260 262 264 267 269 271 271 271 271 271 272 272 274 275 276 277 278 279 280 280 281
257 251 243 238 238 239 233 226 222 220 220 221 221 221 222 228 235 240 241 239 237 237 239 240 239 239 239 240 241 242 241 240 241 243 245 245 244 241 238 237 236 235 237 238 235 234 233 231 229 231 234 237 239 243 247 248 245 245 248 251 254 254 255 257 259 261 262 265 267 270 272 272 272 272 271 271 272 273 274 276 277 278 278 279 279 280 281
256 250 242 237 236 237 232 225 220 218 218 219 219 217 218 224 234 240 241 240 238 237 238 240 241 241 240 239 240 242 243 243 242 242 244 245 246 244 243 243 242 243 245 245 243 240 239 236 233 235 238 241 243 247 249 249 249 250 251 252 254 256 258 260 263 265 267 270 271 271 270 271 271 270 270 271 272 273 275 276 277 278 279 280 281 282 282
252 247 241 235 233 233 228 223 220 220 219 218 217 215 215 220 229 233 235 238 241 240 239 240 242 243 242 240 239 240 241 242 242 242 242 243 244 245 245 245 245 246 247 247 246 245 245 245 244 244 245 246 247 247 248 250 253 256 259 261 262 262 262 263 265 268 270 271 270 269 269 271 271 270 270 271 273 274 275 277 278 279 280 281 282 282 283
245 242 236 230 228 227 222 218 220 223 223 220 216 214 216 222 228 229 231 238 245 244 241 240 241 243 245 244 242 241 240 241 241 242 241 241 242 243 244 245 246 246 245 246 247 249 250 250 250 250 250 251 251 251 251 253 255 257 259 262 264 264 264 266 268 269 270 270 269 269 269 270 269 270 271 273 275 276 277 279 280 281 281 282 282 282 282
236 230 223 219 218 217 213 212 217 224 225 223 218 214 216 227 236 233 229 233 240 242 241 240 240 241 243 245 244 243 242 242 241 242 242 242 242 242 243 244 245 246 245 246 248 250 251 251 250 249 249 249 250 251 252 253 254 255 256 258 260 262 264 266 267 268 268 268 268 267 268 268 269 271 273 275 277 278 279 280 281 281 281 281 281 280 279
218 211 210 212 212 210 210 213 219 224 226 226 222 217 219 231 241 238 230 230 237 242 243 243 242 241 242 244 244 243 243 243 243 242 242 242 242 242 243 244 245 247 248 249 250 251 250 250 248 247 246 246 247 249 250 251 252 253 255 257 259 261 263 264 265 266 266 266 267 268 269 271 272 274 275 277 278 279 279 280 280 280 279 278 278 278 279
205 203 207 210 211 209 210 216 225 228 226 225 224 222 225 236 245 241 232 230 236 241 243 245 245 246 246 247 246 245 246 247 247 245 243 242 242 242 243 244 245 246 246 248 248 249 249 248 247 246 246 246 247 248 249 251 252 254 256 258 259 261 262 263 263 264 266 267 269 271 272 274 275 276 277 277 278 278 278 278 278 277 277 277 278 280 281
201 202 205 208 210 212 215 220 226 228 225 222 222 226 234 244 249 243 233 228 231 237 241 244 246 247 247 248 248 248 249 251 251 248 244 242 241 241 241 241 241 241 241 242 243 244 245 246 246 246 247 248 249 250 252 253 254 255 257 258 259 260 261 263 264 266 268 270 272 273 274 275 275 276 276 276 276 275 275 275 275 275 276 277 278 280 281
199 202 205 210 215 218 220 222 225 225 224 224 227 232 239 244 244 237 227 223 226 233 239 243 245 246 246 246 246 246 248 250 250 248 244 241 239 239 239 238 237 237 237 238 240 242 243 245 246 247 248 250 251 252 253 254 255 256 257 258 260 261 263 265 267 269 271 272 273 274 274 275 275 274 273 273 272 272 272 272 272 273 274 275 277 278 279
210 216 217 221 225 225 224 226 227 226 224 226 230 235 239 241 240 234 227 224 228 234 238 241 242 244 244 244 245 246 247 249 250 248 245 242 239 238 237 236 235 235 236 237 239 241 243 245 247 248 249 250 251 252 253 254 255 256 258 259 261 263 265 267 269 271 272 273 273 274 274 273 273 272 271 270 269 269 269 270 270 271 273 275 276 277 278
233 250 242 235 231 227 224 227 230 228 225 226 230 234 236 238 237 235 231 229 232 236 239 241 243 243 244 245 246 247 247 248 249 249 247 245 243 240 238 237 235 235 236 238 239 240 242 243 244 246 247 248 250 251 253 254 256 258 260 263 265 266 268 269 270 270 271 271 272 272 271 271 270 270 269 269 269 269 269 270 271 273 274 276 277 278 280
Height
5572 5571 5570 5570 5569 5570 5571 5573 5574 5575 5576 5577 5577 5580 5583 5585 5585 5587 5591 5592 5594 5598 5600 5600 5604 5610 5615 5620 5624 5626 5630 5634 5639 5644 5648 5653 5658 5663 5667 5671 5675 5679 5684 5689 5693 5697 5700 5703 5706 5708 5712 5716 5720 5724 5727 5730 5732 5735 5737 5740 5742 5745 5747 5749 5751 5753 5754 5756 5758 5759 5760 5761 5761 5761 5762 5762 5763 5763 5763 5763 5763 5763 5763 5763 5763 5763 5762
5574 5574 5574 5573 5572 5571 5572 5574 5575 5576 5577 5578 5579 5582 5583 5583 5585 5590 5592 5591 5593 5596 5598 5600 5604 5609 5613 5617 5620 5623 5628 5632 5638 5642 5646 5651 5656 5661 5665 5670 5674 5677 5682 5686 5690 5693 5696 5699 5701 5704 5708 5712 5716 5720 5723 5726 5729 5731 5734 5736 5739 5742 5744 5746 5747 5749 5751 5753 5755 5756 5757 5757 5758 5758 5759 5760 5760 5760 5760 5760 5760 5760 5760 5760 5760 5760 5760
5576 5575 5574 5573 5572 5573 5573 5574 5576 5577 5578 5579 5580 5582 5582 5583 5587 5591 5592 5592 5594 5595 5597 5600 5603 5606 5610 5614 5617 5622 5627 5631 5636 5640 5645 5649 5654 5658 5663 5668 5672 5675 5679 5683 5686 5689 5692 5695 5698 5701 5705 5709 5713 5716 5720 5723 5726 5728 5731 5733 5736 5738 5740 5742 5743 5745 5748 5750 5752 5753 5754 5754 5755 5756 5756 5757 5757 5757 5757 5757 5757 5757 5757 5757 5758 5758 5758
5577 5576 5574 5573 5573 5573 5574 5576 5577 5578 5579 5580 5581 5582 5583 5585 5589 5591 5591 5592 5595 5596 5597 5599 5601 5604 5608 5612 5616 5622 5626 5629 5634 5639 5643 5648 5652 5655 5660 5665 5669 5672 5675 5679 5683 5685 5688 5691 5694 5698 5702 5705 5709 5713 5717 5720 5723 5725 5727 5730 5733 5735 5737 5738 5740 5742 5745 5747 5749 5750 5750 5751 5752 5753 5754 5754 5754 5754 5754 5754 5754 5754 5754 5754 5755 5755 5755
5578 5577 5575 5574 5574 5574 5575 5576 5577 5578 5579 5580 5582 5584 5586 5588 5589 5590 5591 5593 5595 5596 5598 5600 5603 5606 5609 5612 5617 5621 5625 5628 5633 5637 5642 5646 5650 5653 5657 5662 5665 5668 5672 5676 5680 5683 5685 5688 5691 5695 5699 5703 5707 5711 5714 5717 5719 5721 5724 5727 5730 5731 5733 5734 5736 5739 5742 5744 5746 5747 5747 5748 5749 5750 5750 5750 5750 5751 5751 5751 5751 5752 5752 5752 5752 5752 5752
5579 5578 5576 5575 5575 5575 5576 5577 5578 5580 5581 5582 5584 5586 5588 5588 5589 5590 5592 5595 5596 5598 5599 5602 5604 5607 5610 5613 5616 5620 5624 5628 5632 5637 5641 5644 5648 5652 5656 5659 5662 5664 5668 5673 5677 5680 5683 5686 5690 5693 5697 5700 5704 5708 5710 5712 5715 5718 5721 5723 5726 5727 5729 5731 5733 5736 5738 5740 5742 5743 5744 5745 5746 5747 5747 5747 5747 5748 5748 5748 5749 5749 5749 5749 5749 5750 5750
5581 5580 5578 5577 5577 5577 5578 5579 5580 5580 5582 5583 5586 5587 5588 5588 5590 5592 5594 5595 5597 5598 5600 5602 5604 5606 5608 5612 5615 5619 5622 5626 5631 5635 5639 5642 5646 5651 5655 5657 5659 5660 5663 5668 5673 5677 5681 5684 5687 5690 5693 5697 5700 5703 5705 5708 5711 5714 5717 5719 5722 5723 5725 5727 5730 5733 5735 5737 5738 5739 5740 5742 5743 5743 5744 5744 5745 5745 5745 5746 5746 5746 5747 5747 5747 5747 5747
5582 5580 5580 5579 5578 5579 5580 5580 5581 5581 5582 5583 5585 5586 5587 5589 5591 5594 5596 5597 5598 5599 5601 5602 5603 5604 5607 5611 5615 5618 5621 5624 5628 5632 5636 5640 5645 5650 5653 5656 5659 5660 5661 5665 5670 5675 5678 5681 5684 5687 5691 5693 5696 5699 5702 5705 5708 5710 5713 5715 5718 5720 5721 5724 5727 5729 5732 5734 5735 5736 5737 5738 5740 5740 5741 5741 5742 5742 5742 5743 5743 5744 5744 5744 5744 5744 5744
5582 5581 5581 5580 5579 5580 5581 5582 5583 5583 5584 5584 5584 5585 5588 5590 5592 5595 5598 5599 5599 5601 5602 5602 5602 5604 5607 5611 5615 5617 5619 5621 5624 5628 5633 5637 5642 5647 5651 5654 5657 5658 5659 5661 5665 5669 5674 5677 5681 5685 5688 5690 5693 5696 5699 5702 5704 5706 5709 5712 5714 5716 5718 5721 5724 5726 5729 5730 5731 5732 5734 5735 5736 5737 5738 5738 5739 5739 5739 5740 5740 5740 5741 5741 5741 5741 5741
5583 5582 5582 5581 5581 5581 5582 5583 5583 5584 5585 5586 5585 5586 5589 5591 5592 5594 5597 5598 5600 5601 5602 5602 5603 5605 5607 5609 5612 5615 5617 5621 5624 5628 5631 5635 5639 5644 5648 5651 5654 5655 5657 5659 5661 5664 5669 5674 5678 5681 5684 5687 5689 5692 5695 5698 5701 5703 5705 5709 5711 5713 5715 5718 5721 5723 5725 5726 5728 5729 5730 5732 5733 5734 5734 5735 5735 5736 5736 5737 5737 5737 5738 5738 5738 5738 5738
5585 5583 5582 5582 5583 5583 5583 5583 5583 5584 5585 5586 5587 5588 5590 5591 5592 5593 5596 5598 5599 5601 5601 5601 5601 5603 5606 5608 5610 5613 5617 5621 5625 5628 5631 5635 5638 5641 5645 5649 5651 5653 5656 5658 5660 5662 5666 5670 5674 5677 5681 5684 5686 5689 5692 5695 5697 5699 5703 5706 5709 5711 5713 5715 5717 5720 5721 5723 5724 5725 5727 5728 5729 5730 5731 5732 5732 5732 5733 5733 5734 5734 5734 5735 5734 5734 5734
5586 5584 5583 5584 5584 5584 5584 5584 5583 5584 5585 5586 5588 5589 5590 5590 5591 5593 5595 5596 5598 5599 5600 5600 5600 5602 5605 5608 5610 5613 5616 5619 5622 5627 5631 5634 5636 5639 5642 5645 5648 5650 5652 5654 5656 5660 5664 5668 5672 5674 5677 5680 5682 5685 5689 5691 5693 5696 5700 5704 5706 5707 5709 5711 5713 5716 5718 5719 5720 5722 5723 5724 5725 5726 5727 5728 5728 5729 5729 5730 5730 5730 5730 5730 5730 5730 5730
5588 5586 5585 5585 5585 5585 5585 5585 5584 5584 5585 5587 5588 5589 5589 5589 5590 5592 5594 5595 5596 5597 5598 5599 5600 5601 5603 5605 5608 5611 5615 5617 5620 5624 5627 5630 5633 5636 5638 5640 5643 5646 5649 5651 5653 5657 5662 5666 5668 5670 5673 5675 5678 5681 5684 5686 5690 5694 5697 5699 5701 5702 5704 5707 5710 5712 5714 5715 5717 5718 5719 5720 5721 5723 5724 5725 5725 5726 5726 5725 5726 5726 5727 5726 5726 5726 5726
5589 5587 5586 5586 5586 5586 5586 5586 5586 5586 5586 5587 5588 5589 5589 5589 5590 5591 5593 5594 5595 5596 5597 5598 5599 5599 5601 5603 5604 5607 5611 5614 5617 5620 5622 5625 5629 5633 5635 5637 5639 5642 5646 5650 5653 5656 5659 5661 5664 5666 5669 5671 5674 5676 5679 5682 5686 5689 5692 5694 5696 5698 5701 5703 5706 5708 5709 5711 5713 5714 5715 5717 5718 5720 5721 5721 5722 5722 5723 5722 5722 5722 5723 5723 5722 5722 5722
5590 5589 5588 5587 5587 5587 5587 5587 5587 5586 5586 5586 5587 5588 5589 5589 5589 5591 5592 5593 5594 5595 5595 5596 5598 5599 5600 5602 5602 5604 5607 5610 5614 5616 5618 5621 5625 5628 5631 5634 5637 5640 5643 5646 5650 5652 5654 5656 5659 5661 5663 5666 5668 5671 5674 5678 5681 5684 5687 5690 5692 5695 5697 5699 5702 5703 5705 5707 5709 5711 5713 5714 5714 5716 5717 5718 5718 5719 5720 5719 5719 5719 5719 5719 5719 5719 5719
5589 5589 5589 5588 5588 5587 5587 5586 5586 5586 5586 5586 5586 5588 5589 5589 5589 5590 5591 5592 5593 5594 5594 5595 5597 5598 5600 5602 5602 5603 5604 5608 5612 5614 5616 5618 5622 5625 5628 5631 5634 5637 5640 5642 5645 5646 5648 5650 5653 5655 5657 5660 5663 5667 5670 5673 5676 5679 5683 5686 5688 5690 5692 5695 5697 5699 5701 5703 5705 5707 5709 5709 5710 5713 5715 5715 5715 5716 5716 5715 5715 5715 5715 5715 5715 5715 5715
5589 5589 5589 5589 5589 5588 5587 5586 5586 5585 5585 5586 5586 5587 5588 5588 5588 5589 5590 5590 5591 5592 5594 5595 5596 5597 5599 5601 5602 5602 5603 5606 5610 5612 5613 5616 5619 5623 5626 5628 5630 5633 5635 5637 5638 5639 5642 5645 5648 5650 5652 5656 5659 5663 5666 5669 5672 5675 5678 5681 5683 5686 5688 5690 5693 5695 5698 5701 5703 5704 5705 5706 5708 5711 5712 5712 5713 5713 5712 5712 5712 5712 5712 5712 5712 5711 5711
5590 5589 5589 5589 5589 5588 5587 5586 5585 5585 5585 5585 5586 5587 5587 5587 5587 5587 5588 5589 5590 5591 5593 5594 5595 5597 5598 5600 5601 5602 5602 5604 5607 5610 5612 5615 5618 5621 5623 5625 5627 5629 5631 5633 5633 5634 5637 5642 5646 5648 5649 5652 5655 5657 5660 5663 5666 5670 5673 5676 5679 5681 5684 5687 5690 5693 5696 5699 5700 5701 5702 5704 5706 5707 5708 5709 5709 5709 5709 5709 5709 5709 5709 5708 5708 5708 5707
5591 5590 5589 5588 5588 5588 5587 5586 5585 5585 5584 5584 5585 5586 5587 5587 5586 5587 5587 5588 5589 5590 5591 5593 5595 5596 5597 5599 5601 5602 5603 5604 5606 5609 5612 5615 5618 5620 5622 5623 5625 5627 5628 5630 5632 5633 5635 5638 5641 5643 5644 5646 5649 5653 5656 5659 5662 5664 5668 5672 5675 5678 5681 5684 5688 5691 5694 5696 5697 5697 5699 5700 5702 5703 5704 5705 5706 5706 5705 5705 5705 5705 5705 5705 5705 5704 5703
5590 5590 5589 5588 5588 5588 5587 5586 5585 5585 5584 5583 5584 5585 5586 5586 5586 5586 5586 5587 5588 5589 5590 5592 5593 5595 5597 5599 5600 5602 5603 5605 5607 5609 5612 5615 5617 5619 5621 5622 5623 5625 5627 5629 5631 5634 5635 5636 5636 5638 5641 5645 5649 5653 5657 5659 5661 5663 5665 5667 5671 5675 5678 5682 5686 5688 5690 5692 5694 5695 5697 5698 5699 5700 5701 5702 5702 5702 5702 5702 5702 5702 5702 5701 5701 5700 5699
5588 5589 5589 5588 5588 5588 5587 5585 5585 5585 5585 5584 5584 5584 5585 5584 5584 5584 5585 5586 5588 5589 5590 5591 5592 5593 5595 5597 5599 5600 5602 5604 5607 5609 5612 5614 5617 5618 5619 5620 5622 5624 5627 5629 5630 5632 5634 5635 5635 5636 5640 5644 5647 5649 5652 5655 5659 5662 5665 5666 5668 5671 5675 5679 5683 5685 5687 5689 5692 5693 5695 5696 5697 5698 5699 5699 5699 5698 5698 5698 5698 5698 5698 5697 5697 5696 5696
5588 5589 5589 5588 5587 5587 5586 5585 5584 5584 5584 5584 5584 5584 5584 5583 5583 5584 5585 5586 5587 5588 5589 5590 5590 5591 5593 5595 5597 5599 5601 5603 5606 5609 5611 5613 5615 5616 5617 5619 5621 5623 5625 5627 5629 5630 5631 5632 5633 5634 5637 5639 5641 5643 5646 5649 5653 5658 5663 5665 5667 5670 5674 5678 5680 5683 5685 5688 5689 5691 5692 5693 5694 5695 5695 5695 5695 5695 5694 5694 5694 5693 5693 5693 5693 5692 5692
5587 5588 5588 5588 5587 5586 5586 5585 5584 5583 5583 5583 5583 5583 5583 5583 5583 5584 5585 5585 5586 5588 5589 5590 5589 5590 5591 5593 5595 5597 5599 5601 5604 5607 5609 5611 5612 5614 5616 5618 5619 5621 5623 5625 5627 5628 5629 5630 5631 5632 5633 5634 5636 5638 5641 5645 5649 5654 5658 5661 5664 5668 5673 5676 5678 5681 5683 5685 5686 5688 5689 5690 5690 5691 5691 5691 5691 5690 5690 5690 5689 5689 5689 5689 5689 5688 5688
5585 5585 5586 5586 5586 5586 5585 5585 5584 5583 5583 5583 5583 5583 5583 5583 5584 5584 5585 5585 5586 5587 5588 5588 5588 5589 5590 5591 5593 5595 5597 5600 5603 5605 5607 5609 5610 5612 5614 5616 5617 5618 5620 5621 5623 5624 5626 5627 5628 5628 5630 5631 5632 5634 5637 5641 5646 5650 5653 5656 5661 5666 5670 5673 5676 5678 5680 5682 5683 5684 5685 5685 5686 5687 5687 5687 5687 5686 5686 5686 5686 5685 5685 5684 5684 5684 5683
5581 5583 5584 5585 5584 5585 5585 5585 5584 5584 5584 5584 5584 5583 5583 5583 5584 5584 5584 5585 5585 5586 5586 5587 5587 5588 5589 5590 5591 5593 5596 5598 5600 5602 5603 5605 5607 5608 5610 5612 5614 5615 5616 5617 5618 5620 5622 5623 5624 5625 5626 5628 5631 5633 5636 5639 5643 5647 5650 5653 5658 5662 5667 5670 5673 5675 5676 5678 5679 5680 5680 5681 5682 5682 5682 5683 5683 5683 5682 5682 5681 5681 5680 5680 5680 5679 5679
5579 5581 5582 5582 5582 5583 5584 5584 5584 5584 5583 5584 5584 5583 5583 5583 5583 5583 5584 5584 5585 5585 5586 5586 5587 5588 5589 5589 5591 5592 5594 5596 5597 5597 5599 5601 5603 5605 5606 5609 5610 5611 5612 5613 5615 5617 5618 5619 5620 5621 5622 5626 5629 5631 5633 5636 5639 5642 5646 5650 5654 5658 5662 5666 5669 5671 5673 5674 5675 5675 5676 5677 5677 5678 5679 5679 5679 5679 5678 5677 5677 5676 5676 5676 5676 5675 5674
5576 5578 5579 5579 5580 5580 5582 5583 5583 5583 5583 5583 5583 5582 5582 5582 5582 5583 5583 5583 5584 5585 5585 5586 5587 5587 5587 5588 5590 5591 5592 5593 5593 5594 5596 5599 5600 5602 5604 5606 5608 5609 5609 5611 5613 5614 5615 5615 5614 5615 5618 5622 5626 5628 5630 5632 5636 5640 5644 5647 5651 5654 5658 5662 5665 5667 5668 5669 5670 5671 5672 5673 5674 5674 5675 5675 5675 5674 5673 5672 5672 5672 5672 5671 5671 5670 5669
5573 5574 5575 5576 5577 5578 5579 5581 5582 5582 5582 5582 5581 5581 5581 5581 5581 5581 5582 5583 5584 5585 5586 5588 5588 5587 5585 5586 5588 5590 5591 5591 5592 5593 5594 5597 5598 5600 5601 5603 5605 5607 5609 5609 5610 5611 5611 5611 5611 5611 5613 5617 5621 5623 5626 5630 5635 5638 5641 5644 5648 5651 5655 5658 5661 5663 5664 5665 5666 5667 5668 5669 5670 5670 5671 5671 5670 5669 5668 5667 5667 5666 5666 5666 5665 5665 5664
5570 5571 5572 5573 5574 5575 5576 5578 5580 5580 5580 5580 5580 5580 5580 5579 5579 5580 5582 5583 5584 5585 5587 5588 5588 5586 5584 5584 5586 5588 5589 5590 5590 5591 5592 5594 5596 5597 5598 5600 5601 5604 5607 5607 5606 5607 5608 5608 5609 5610 5612 5615 5618 5620 5624 5629 5633 5635 5638 5641 5645 5649 5652 5654 5657 5658 5659 5661 5662 5663 5665 5665 5666 5666 5666 5666 5666 5665 5663 5662 5662 5661 5661 5660 5660 5660 5659
5566 5567 5568 5569 5571 5571 5572 5574 5576 5578 5579 5578 5579 5579 5579 5579 5578 5579 5580 5581 5582 5583 5584 5585 5585 5585 5584 5584 5585 5586 5587 5588 5588 5589 5591 5592 5594 5595 5596 5597 5599 5601 5603 5604 5605 5607 5608 5607 5608 5610 5612 5615 5618 5621 5624 5628 5631 5633 5636 5639 5643 5646 5649 5651 5653 5654 5656 5657 5659 5660 5661 5661 5661 5662 5662 5662 5662 5661 5659 5658 5657 5657 5656 5655 5655 5654 5654
5562 5563 5564 5565 5567 5568 5569 5570 5572 5575 5576 5576 5577 5577 5578 5578 5578 5578 5578 5579 5580 5580 5581 5581 5582 5583 5583 5584 5585 5586 5586 5586 5587 5588 5590 5592 5593 5594 5595 5596 5597 5599 5601 5602 5604 5606 5607 5607 5608 5609 5612 5616 5619 5622 5624 5627 5630 5632 5635 5638 5640 5643 5646 5648 5649 5651 5652 5653 5654 5655 5656 5657 5657 5657 5657 5657 5657 5656 5655 5654 5653 5652 5651 5650 5650 5649 5649
5558 5559 5560 5561 5562 5564 5565 5567 5569 5571 5572 5573 5574 5575 5576 5577 5577 5577 5577 5578 5579 5579 5579 5580 5581 5582 5583 5584 5586 5586 5587 5587 5587 5588 5589 5592 5594 5595 5596 5597 5597 5598 5600 5601 5602 5604 5605 5607 5608 5610 5612 5616 5619 5621 5624 5626 5628 5631 5633 5636 5638 5640 5642 5643 5645 5646 5647 5648 5650 5651 5652 5652 5652 5652 5652 5652 5651 5650 5650 5649 5648 5648 5647 5646 5645 5645 5644
5555 5556 5556 5557 5559 5560 5562 5563 5566 5568 5569 5570 5571 5573 5574 5575 5575 5576 5576 5577 5578 5578 5578 5579 5580 5581 5583 5584 5584 5586 5587 5587 5587 5587 5588 5590 5593 5594 5596 5597 5598 5599 5599 5600 5601 5602 5604 5606 5608 5610 5613 5615 5617 5620 5622 5624 5626 5629 5631 5633 5634 5636 5638 5639 5641 5642 5643 5644 5645 5646 5647 5647 5647 5647 5647 5646 5645 5645 5644 5644 5643 5643 5643 5642 5641 5640 5640
5552 5553 5554 5554 5555 5557 5558 5560 5562 5564 5566 5567 5569 5570 5571 5572 5573 5574 5575 5576 5577 5578 5578 5578 5578 5579 5581 5582 5583 5584 5585 5586 5586 5587 5588 5589 5591 5593 5594 5596 5597 5599 5600 5600 5601 5602 5604 5606 5608 5610 5612 5614 5616 5618 5620 5623 5625 5627 5628 5630 5631 5633 5634 5636 5637 5638 5639 5640 5641 5641 5642 5642 5641 5641 5641 5640 5639 5639 5639 5639 5638 5638 5638 5637 5636 5636 5635
5548 5550 5550 5551 5552 5553 5554 5555 5557 5560 5561 5563 5565 5567 5568 5569 5570 5572 5573 5574 5575 5576 5576 5577 5577 5577 5578 5579 5581 5582 5584 5584 5585 5586 5587 5588 5590 5591 5592 5594 5596 5598 5599 5600 5601 5602 5604 5606 5608 5609 5611 5613 5615 5617 5619 5621 5623 5624 5626 5627 5628 5630 5631 5632 5633 5634 5635 5636 5636 5637 5637 5636 5636 5635 5635 5634 5634 5634 5634 5633 5633 5633 5632 5632 5631 5631 5631
5544 5545 5546 5547 5548 5549 5550 5551 5553 5555 5557 5559 5561 5563 5565 5566 5567 5569 5570 5571 5572 5573 5574 5575 5575 5576 5576 5577 5578 5580 5582 5583 5584 5585 5586 5587 5589 5590 5591 5592 5593 5595 5597 5599 5600 5601 5602 5604 5606 5608 5609 5611 5613 5615 5617 5619 5620 5621 5623 5624 5625 5626 5626 5627 5628 5630 5631 5632 5632 5632 5631 5631 5630 5629 5629 5629 5629 5629 5629 5629 5628 5628 5628 5627 5627 5626 5626
5539 5541 5542 5543 5544 5545 5546 5547 5549 5551 5553 5556 5558 5560 5561 5563 5564 5566 5567 5569 5570 5571 5572 5573 5574 5575 5575 5576 5576 5578 5579 5581 5582 5583 5584 5585 5587 5588 5589 5590 5591 5592 5594 5597 5598 5599 5600 5602 5603 5605 5607 5609 5611 5612 5614 5615 5616 5618 5619 5620 5620 5621 5622 5623 5624 5625 5626 5627 5627 5626 5626 5625 5624 5624 5624 5624 5624 5624 5624 5624 5624 5623 5623 5623 5622 5622 5622
5535 5536 5537 5539 5540 5541 5542 5543 5545 5547 5549 5552 5554 5556 5558 5559 5561 5562 5564 5566 5567 5568 5569 5571 5572 5573 5574 5574 5575 5576 5577 5578 5580 5581 5582 5583 5584 5585 5586 5588 5589 5590 5592 5594 5595 5597 5598 5600 5601 5603 5604 5606 5607 5609 5611 5612 5613 5614 5614 5615 5616 5617 5618 5619 5620 5621 5622 5622 5622 5621 5620 5620 5620 5620 5620 5620 5620 5620 5620 5620 5619 5619 5619 5619 5618 5618 5617
5530 5531 5533 5535 5536 5537 5538 5539 5541 5543 5546 5548 5550 5553 5554 5556 5557 5558 5560 5562 5563 5565 5566 5568 5569 5571 5572 5573 5573 5574 5575 5576 5577 5579 5580 5580 5581 5582 5584 5585 5586 5588 5590 5591 5593 5595 5596 5597 5598 5599 5600 5601 5603 5605 5607 5608 5609 5610 5610 5611 5612 5613 5614 5615 5616 5617 5617 5617 5616 5616 5615 5615 5615 5616 5616 5616 5616 5616 5616 5615 5615 5615 5615 5614 5614 5613 5613
5525 5527 5529 5530 5532 5533 5535 5536 5538 5540 5542 5545 5547 5549 5551 5552 5554 5555 5556 5558 5560 5561 5563 5565 5567 5568 5570 5570 5571 5571 5572 5573 5575 5576 5578 5578 5579 5580 5582 5583 5584 5586 5588 5589 5591 5592 5593 5593 5594 5595 5596 5598 5600 5601 5603 5604 5605 5606 5607 5607 5608 5609 5610 5611 5611 5612 5612 5611 5611 5611 5611 5611 5611 5611 5612 5612 5612 5612 5611 5611 5611 5610 5610 5610 5609 5609 5608
5520 5522 5524 5526 5527 5529 5531 5533 5535 5537 5539 5541 5543 5545 5547 5549 5550 5552 5553 5555 5556 5558 5560 5562 5564 5566 5567 5568 5568 5569 5570 5571 5572 5573 5574 5575 5576 5578 5580 5581 5582 5584 5585 5587 5588 5590 5590 5590 5591 5592 5593 5595 5597 5598 5599 5600 5601 5602 5602 5603 5604 5605 5605 5606 5606 5607 5607 5607 5606 5606 5606 5607 5607 5607 5608 5607 5607 5607 5607 5607 5607 5606 5606 5606 5605 5604 5603
5516 5518 5520 5522 5524 5525 5527 5529 5531 5533 5535 5537 5540 5542 5544 5546 5547 5548 5549 5551 5553 5554 5556 5558 5560 5562 5564 5565 5566 5566 5567 5568 5569 5570 5571 5572 5574 5575 5577 5578 5580 5581 5583 5584 5586 5587 5587 5588 5588 5588 5590 5591 5592 5593 5595 5596 5596 5597 5598 5599 5600 5600 5601 5601 5602 5602 5602 5602 5602 5602 5602 5603 5603 5604 5604 5603 5603 5603 5602 5602 5602 5602 5602 5601 5601 5600 5599
5511 5513 5516 5518 5520 5522 5523 5525 5527 5530 5532 5534 5536 5539 5541 5543 5544 5545 5546 5548 5549 5551 5552 5554 5555 5557 5559 5561 5563 5564 5565 5566 5567 5568 5568 5569 5571 5572 5573 5575 5576 5578 5579 5581 5582 5583 5584 5585 5585 5586 5587 5588 5589 5590 5591 5592 5592 5593 5594 5595 5596 5596 5596 5597 5597 5597 5598 5598 5598 5599 5599 5599 5599 5600 5599 5599 5599 5598 5598 5598 5598 5598 5597 5596 5596 5595 5594
5508 5509 5512 5515 5517 5518 5520 5522 5524 5527 5529 5531 5533 5535 5538 5539 5540 5541 5543 5544 5546 5547 5548 5550 5551 5553 5554 5557 5559 5560 5561 5563 5564 5565 5566 5567 5568 5569 5570 5571 5573 5574 5576 5577 5578 5579 5580 5581 5582 5583 5584 5584 5585 5587 5588 5588 5589 5589 5590 5590 5591 5592 5592 5592 5593 5593 5594 5595 5595 5595 5595 5595 5595 5595 5595 5595 5594 5594 5594 5594 5593 5593 5592 5591 5590 5590 5589
5505 5506 5509 5512 5514 5516 5518 5520 5523 5525 5526 5528 5530 5532 5534 5535 5537 5538 5540 5541 5543 5544 5545 5547 5548 5549 5550 5552 5554 5556 5558 5559 5560 5562 5563 5564 5564 5565 5566 5567 5569 5571 5572 5574 5575 5576 5577 5578 5579 5580 5580 5581 5582 5583 5584 5585 5585 5586 5586 5586 5586 5587 5587 5588 5589 5589 5590 5591 5591 5591 5591 5591 5591 5591 5591 5590 5590 5589 5589 5588 5588 5587 5586 5586 5585 5584 5584
5503 5505 5507 5509 5511 5513 5516 5518 5520 5521 5522 5524 5527 5530 5531 5532 5534 5536 5537 5538 5539 5541 5542 5543 5545 5546 5547 5548 5550 5551 5553 5555 5556 5558 5559 5560 5561 5562 5563 5564 5565 5567 5569 5570 5571 5572 5573 5575 5576 5576 5577 5578 5578 5579 5580 5581 5581 5582 5582 5583 5583 5583 5584 5585 5585 5586 5586 5586 5587 5587 5587 5587 5587 5587 5586 5586 5585 5584 5584 5583 5582 5581 5581 5580 5580 5579 5579
5502 5503 5505 5507 5509 5511 5513 5515 5516 5518 5519 5521 5524 5526 5528 5529 5530 5532 5534 5535 5536 5537 5538 5540 5541 5543 5544 5545 5546 5548 5549 5551 5552 5554 5555 5556 5557 5558 5560 5561 5562 5563 5565 5566 5567 5569 5570 5571 5572 5573 5574 5574 5575 5575 5576 5577 5577 5578 5579 5579 5580 5580 5581 5581 5581 5582 5582 5582 5583 5583 5582 5582 5582 5582 5581 5581 5580 5579 5579 5578 5577 5577 5576 5576 5575 5575 5574
5500 5502 5504 5506 5508 5509 5511 5513 5514 5515 5517 5519 5521 5523 5525 5526 5527 5528 5530 5531 5532 5534 5535 5536 5537 5539 5541 5542 5544 5545 5546 5547 5548 5549 5550 5552 5553 5555 5556 5557 5558 5560 5561 5562 5563 5564 5565 5567 5568 5569 5569 5570 5571 5571 5572 5573 5573 5574 5575 5575 5575 5576 5576 5577 5577 5577 5577 5578 5578 5578 5577 5577 5577 5576 5576 5575 5575 5574 5574 5573 5572 5572 5571 5571 5570 5570 5570
5500 5501 5503 5504 5506 5508 5510 5511 5512 5513 5515 5517 5519 5521 5522 5523 5524 5525 5526 5527 5529 5530 5531 5533 5534 5535 5537 5539 5540 5542 5543 5543 5544 5545 5547 5548 5549 5551 5552 5553 5554 5555 5556 5557 5558 5560 5561 5562 5563 5564 5565 5565 5566 5567 5568 5569 5569 5570 5570 5571 5571 5571 5571 5572 5572 5572 5572 5573 5573 5572 5572 5572 5571 5571 5571 5570 5570 5569 5569 5568 5568 5567 5567 5566 5566 5566 5565
5500 5501 5503 5504 5506 5507 5508 5509 5510 5511 5513 5515 5517 5518 5519 5520 5521 5522 5523 5524 5526 5527 5528 5529 5530 5532 5533 5535 5536 5537 5538 5539 5540 5541 5543 5544 5545 5546 5548 5549 5550 5551 5552 5553 5554 5556 5557 5558 5559 5559 5560 5561 5562 5563 5564 5564 5565 5565 5565 5566 5566 5566 5566 5566 5567 5567 5567 5567 5567 5567 5567 5567 5566 5566 5566 5565 5565 5565 5564 5564 5563 5563 5563 5562 5562 5562 5561
5499 5501 5502 5503 5504 5506 5507 5508 5509 5509 5511 5513 5514 5515 5516 5517 5518 5519 5520 5521 5522 5523 5524 5525 5526 5528 5529 5531 5532 5533 5534 5536 5537 5538 5539 5540 5541 5542 5543 5544 5546 5547 5548 5549 5550 5552 5553 5554 5555 5556 5556 5557 5558 5558 5559 5559 5560 5560 5560 5560 5560 5561 5561 5561 5561 5562 5562 5562 5562 5562 5562 5561 5561 5561 5561 5560 5560 5560 5560 5559 5559 5559 5558 5558 5558 5557 5557
5499 5500 5501 5502 5503 5504 5505 5506 5506 5508 5509 5510 5511 5512 5513 5513 5514 5515 5516 5517 5518 5519 5520 5522 5523 5525 5526 5527 5528 5529 5531 5532 5533 5534 5535 5536 5537 5538 5539 5540 5541 5542 5543 5544 5545 5547 5548 5549 5550 5551 5552 5553 5553 5553 5554 5554 5554 5554 5555 5555 5555 5555 5556 5556 5556 5556 5556 5556 5556 5556 5556 5556 5556 5556 5556 5556 5555 5555 5555 5555 5555 5554 5554 5554 5553 5553 5553